Vorticity
7 7 7 7 7 7 7 6 7 7 7 8 9 9 5 5 7 9 11 11 10 10 11 10 9 8 8 6 6 8 9 8 9 9 8 10 10 9
9 9 8 6 5 6 6 6 5 6 6 7 9 8 8 6 6 4 6 10 11 10 8 10 10 11 9 8 7 7 7 9 9 9 9 8 9 9
8 7 7 7 8 8 8 8 8 8 7 5 6 8 10 11 7 8 6 4 9 13 10 8 9 9 11 11 9 8 7 7 8 9 9 9 9 8
6 6 5 5 5 6 6 6 7 7 7 6 5 6 8 9 10 10 7 7 7 8 12 11 10 9 9 10 11 9 8 8 6 7 9 9 9 9
8 8 9 9 9 9 9 8 7 5 5 5 4 4 5 8 9 11 9 9 7 7 9 11 11 10 10 10 11 11 10 9 8 6 7 9 9 9
12 12 12 12 12 12 12 11 11 11 11 11 11 10 9 11 10 12 13 10 9 8 9 11 11 10 11 12 11 10 9 9 8 8 7 7 8 8
7 9 10 12 14 13 12 12 12 13 13 12 12 12 13 15 15 15 13 14 13 10 9 12 12 9 9 11 11 10 10 10 9 9 8 8 7 8
11 12 13 14 15 16 14 13 12 13 12 13 14 14 12 11 13 16 16 15 16 14 11 11 11 13 10 12 12 10 10 10 9 9 9 9 8 8
13 15 16 16 17 19 18 17 14 12 13 13 15 14 12 9 11 12 13 14 14 18 16 14 15 15 14 11 13 11 11 10 10 9 9 9 8 8
17 19 17 16 14 17 19 16 16 16 18 17 13 12 14 17 12 14 13 14 13 13 16 18 14 18 15 14 13 14 13 12 11 9 8 8 8 8
13 14 19 16 18 10 10 14 17 18 21 18 18 17 22 15 16 14 12 12 13 13 14 13 13 17 14 16 14 15 17 14 13 11 11 10 10 9
13 17 19 18 15 11 16 18 8 7 12 13 7 4 11 14 12 14 12 14 13 17 15 13 11 12 12 12 16 14 14 16 14 14 12 12 10 10
13 15 17 17 13 14 4 5 0 -1 18 23 11 17 8 12 11 12 16 11 9 12 16 20 20 14 10 9 11 14 12 13 14 13 13 12 11 11
15 16 18 18 16 15 15 13 11 13 15 6 4 5 25 5 9 12 11 18 9 7 9 15 9 11 20 18 9 7 10 8 11 13 12 12 11 11
13 10 16 18 14 14 13 13 12 11 10 11 9 15 4 13 32 0 4 14 16 9 12 9 10 10 5 9 17 15 14 10 8 8 7 8 9 10
12 9 11 14 14 12 12 11 12 12 11 10 13 13 12 12 7 44 12 -11 8 4 14 12 29 18 15 14 14 12 14 16 18 15 10 8 8 9
10 8 15 15 13 14 13 14 14 14 14 15 17 18 18 16 13 11 11 8 18 6 7 9 11 25 17 13 14 15 19 13 16 17 16 15 14 14
13 9 13 9 8 10 12 15 14 14 15 16 15 18 19 19 17 16 13 4 17 12 11 6 9 10 18 20 11 19 15 16 14 15 14 10 9 14
11 12 8 5 4 5 5 7 12 11 12 14 13 9 8 8 4 17 19 15 15 14 10 15 3 12 11 14 14 10 16 15 17 11 8 13 15 14
12 10 11 6 5 5 5 5 8 15 13 9 9 6 7 8 5 12 6 19 13 17 11 19 4 5 14 17 10 8 13 12 20 16 15 16 13 14
14 10 10 12 11 8 8 8 9 16 19 16 11 9 9 10 7 8 15 7 17 14 17 9 18 4 9 14 21 12 12 11 15 20 22 19 18 15
13 15 12 8 10 12 12 11 12 14 16 16 13 11 10 7 11 12 9 18 11 17 16 10 5 13 8 12 17 15 9 13 18 16 15 13 12 12
17 13 15 15 12 12 13 13 15 16 15 15 12 11 8 16 14 19 21 22 10 17 14 14 6 24 1 13 15 12 9 7 17 16 14 12 11 12
Height
3083 3080 3077 3074 3070 3066 3063 3059 3053 3046 3050 3058 3050 3048 3045 3040 3037 3034 3033 3034 3033 3032 3030 3028 3027 3027 3028 3027 3026 3025 3025 3025 3024 3023 3023 3024 3026 3026
3074 3072 3069 3066 3063 3059 3055 3052 3048 3042 3033 3041 3043 3038 3036 3034 3031 3026 3023 3022 3023 3023 3022 3021 3020 3019 3018 3019 3019 3019 3019 3019 3019 3019 3017 3017 3019 3021
3064 3061 3059 3055 3053 3050 3046 3043 3039 3036 3026 3024 3028 3030 3026 3024 3022 3018 3014 3012 3012 3012 3011 3010 3010 3010 3011 3011 3010 3011 3012 3013 3013 3013 3013 3013 3011 3013
3053 3049 3047 3044 3041 3039 3035 3031 3028 3025 3019 3013 3011 3017 3015 3013 3012 3009 3005 3002 3001 3002 3002 3000 3000 3000 3000 3001 3003 3003 3003 3004 3006 3007 3008 3008 3008 3007
3041 3039 3036 3033 3029 3026 3022 3018 3016 3012 3009 3003 2999 2999 3001 3000 2997 2998 2996 2993 2990 2989 2990 2992 2991 2990 2990 2991 2993 2994 2996 2996 2997 2999 3000 3002 3003 3003
3028 3024 3021 3018 3014 3010 3007 3004 3001 2997 2994 2991 2987 2985 2984 2987 2983 2982 2982 2981 2980 2978 2978 2979 2980 2980 2981 2981 2981 2984 2985 2987 2989 2991 2992 2994 2996 2998
3014 3010 3006 3003 3000 2996 2991 2989 2986 2982 2979 2976 2974 2971 2969 2968 2968 2967 2964 2966 2967 2967 2966 2966 2967 2968 2969 2971 2972 2973 2975 2977 2979 2981 2984 2986 2988 2990
2999 2995 2992 2988 2985 2982 2979 2975 2972 2969 2966 2963 2961 2958 2957 2955 2954 2951 2950 2949 2950 2951 2952 2954 2953 2955 2957 2958 2961 2963 2965 2967 2968 2972 2975 2977 2979 2982
2985 2981 2977 2975 2971 2968 2966 2963 2960 2958 2954 2951 2949 2948 2946 2945 2945 2943 2941 2939 2939 2939 2938 2939 2941 2943 2944 2946 2949 2951 2954 2957 2959 2961 2964 2967 2970 2973
2972 2968 2964 2962 2959 2955 2951 2950 2948 2946 2943 2939 2936 2935 2934 2934 2932 2931 2930 2930 2930 2930 2929 2927 2932 2932 2933 2935 2937 2940 2943 2946 2949 2952 2955 2957 2960 2964
2961 2956 2953 2950 2948 2946 2941 2938 2936 2935 2931 2928 2925 2924 2923 2922 2921 2920 2920 2919 2918 2921 2921 2920 2923 2922 2923 2925 2927 2930 2933 2936 2939 2942 2945 2948 2951 2954
2950 2946 2943 2940 2938 2935 2931 2928 2925 2925 2922 2919 2917 2915 2914 2912 2911 2910 2911 2910 2909 2908 2910 2911 2913 2914 2915 2916 2918 2920 2923 2926 2928 2931 2935 2939 2942 2945
2939 2936 2932 2929 2927 2925 2922 2919 2917 2915 2912 2910 2908 2906 2904 2904 2903 2902 2902 2901 2901 2900 2901 2901 2902 2904 2906 2907 2909 2911 2913 2917 2919 2922 2925 2929 2934 2936
2929 2926 2922 2919 2917 2914 2912 2910 2907 2905 2903 2901 2899 2897 2896 2895 2895 2894 2894 2893 2893 2893 2893 2893 2893 2895 2897 2898 2900 2903 2905 2908 2910 2913 2916 2920 2925 2928
2920 2917 2913 2910 2907 2904 2902 2900 2898 2896 2894 2892 2891 2889 2888 2886 2885 2887 2886 2885 2885 2885 2885 2885 2886 2887 2888 2889 2890 2893 2895 2899 2901 2904 2907 2911 2915 2919
2912 2908 2906 2902 2899 2896 2894 2891 2889 2887 2885 2883 2881 2879 2878 2877 2877 2875 2877 2877 2878 2878 2878 2877 2877 2878 2879 2880 2882 2884 2886 2888 2892 2895 2898 2902 2905 2909
2903 2900 2898 2895 2891 2888 2886 2883 2881 2878 2877 2874 2872 2871 2869 2869 2868 2868 2867 2868 2869 2870 2872 2871 2871 2870 2871 2873 2873 2875 2877 2879 2883 2886 2888 2892 2895 2899
2893 2891 2889 2887 2884 2881 2878 2876 2873 2871 2869 2866 2865 2863 2862 2861 2860 2861 2860 2860 2862 2862 2863 2865 2865 2865 2865 2866 2867 2868 2869 2872 2874 2877 2879 2882 2886 2890
2885 2882 2880 2879 2876 2874 2871 2869 2866 2864 2861 2859 2858 2857 2856 2855 2854 2854 2853 2853 2854 2854 2856 2857 2859 2859 2860 2859 2861 2862 2863 2864 2866 2869 2872 2875 2879 2882
2875 2872 2870 2869 2868 2865 2863 2861 2858 2856 2854 2852 2851 2850 2849 2848 2848 2847 2846 2846 2846 2847 2848 2850 2852 2853 2853 2854 2855 2856 2857 2858 2860 2862 2865 2869 2872 2874
2864 2862 2861 2859 2858 2856 2854 2852 2850 2847 2845 2844 2843 2842 2841 2841 2840 2840 2839 2839 2839 2840 2841 2843 2845 2847 2848 2848 2849 2850 2852 2853 2854 2856 2859 2861 2864 2867
2852 2851 2850 2849 2847 2846 2844 2842 2840 2838 2837 2835 2835 2834 2834 2833 2832 2832 2831 2832 2832 2833 2834 2836 2838 2841 2842 2844 2845 2846 2847 2848 2849 2851 2854 2856 2860 2861
2842 2840 2839 2838 2837 2835 2834 2832 2831 2829 2828 2828 2827 2827 2826 2825 2824 2823 2822 2823 2824 2826 2828 2830 2832 2834 2837 2839 2840 2841 2843 2844 2845 2847 2849 2852 2854 2857